Regional Weather Roundup
Issued by NWS

Home | Current Version | Previous Version | Graphics & Text | Print | Product List | Glossary On
Versions: 1 2 3 4 5 6 7 8 9 10 11 12 13 14 15 16 17 18 19 20 21 22 23 24 25 26 27 28 29 30 31 32 33 34 35 36 37 38 39 40 41 42 43 44 45 46 47 48 49 50
000
ASUS45 KTFX 270719
RWRMT
MONTANA HOURLY WEATHER ROUNDUP
NATIONAL WEATHER SERVICE GREAT FALLS MT
119 AM MDT WED AUG 27 2014

NOTE: "FAIR" INDICATES FEW OR NO CLOUDS BELOW 12000 FEET WITH NO
SIGNIFICANT WEATHER AND/OR OBSTRUCTIONS TO VISIBILITY.

* THESE STATIONS ARE NOT UNDER NWS QUALITY CONTROL. THEY DO NOT
   REPORT WEATHER SUCH AS PRECIPITATION OR FOG.

MTZ001>007-043-270800-
WEST OF THE DIVIDE
CITY           SKY/WX    TMP DP  RH WIND       PRES   REMARKS
KALISPELL      CLEAR     50  46  86 CALM      30.07R
MISSOULA       CLEAR     57  45  64 CALM      30.12R
BUTTE          CLEAR     48  45  89 S3        30.22S
MULLAN PASS    CLEAR     57  39  51 W5        30.23S
* LINCOLN      N/A       45  42  89 NE1        N/A
* LOOKOUT PASS N/A       55  44  67 N/A        N/A
* POLSON       N/A       59  44  58 S1         N/A
* RONAN APT    CLEAR     52  45  77 N/A        N/A
* SEELEY LAKE  N/A       45  42  89 NE1        N/A
* THOMP F APT  CLEAR     48  38  68 NE5        N/A
$$

MTZ008-052>055-270800-
SOUTHWEST MONTANA
CITY           SKY/WX    TMP DP  RH WIND       PRES   REMARKS
BOZEMAN        CLEAR     54  46  74 E8        30.16R
DILLON         PTCLDY    52  45  77 S8        30.19S
W YELLOWSTONE  CLEAR     37  36  96 CALM      30.30S
* THREE FORKS  CLEAR     52  30  43 N/A        N/A
* BOULDER HILL N/A       56  38  51 S6         N/A
* MONIDA PASS  N/A       46  39  77 NE1        N/A
* RAYNOLDS PAS N/A       45  30  56 S6         N/A
* WHITEHALL    N/A       54  47  77 NW5        N/A
* WISE RIVER   N/A       49  43  80 S3         N/A
$$

MTZ009>010-012-014-046-048-049-054-270800-
EAST SLOPES AND CENTRAL MONTANA
CITY           SKY/WX    TMP DP  RH WIND       PRES   REMARKS
CUT BANK       CLEAR     55  45  69 W5        30.06S
GREAT FALLS    CLEAR     57  45  64 SW10      30.07R
HELENA         CLEAR     59  45  60 SW3       30.12R
MALMSTROM AFB  CLEAR     59  45  60 SW10      30.08R
* CONRAD       CLEAR     52  48  86 N/A        N/A
* DEARBORN     N/A       53  45  74 SW2        N/A
* EAST GLACIER N/A       56  43  62 W6         N/A
* MONARCH      N/A       49  39  69 S12        N/A
* PENDROY      N/A       62  41  46 NW15       N/A
* SAINT MARY   N/A       62  43  50 S6G14      N/A
* SWEET GRASS  N/A       63  44  50 W12        N/A
* WHITE SULPH  N/A       51  43  74 E9         N/A
$$

MTZ011-013-016-021-035-040-045-047-050-051-270800-
NORTH CENTRAL MONTANA
CITY           SKY/WX    TMP DP  RH WIND       PRES   REMARKS
HAVRE          CLEAR     61  46  58 CALM      30.01F
LEWISTOWN      CLEAR     54  45  72 SE6       30.12F
* FORT BENTON  CLEAR     59  46  62 CALM      30.04S
* CHESTER      N/A       58  45  62 N/A        N/A
* DENTON       N/A       54  46  74 S1         N/A
* GEYSER       N/A       51  44  77 S7         N/A
* JUDITH GAP   N/A       54  45  72 SE4        N/A
* LOMA         N/A       62  47  58 NE7        N/A
$$

MTZ017>020-022>027-061-062-270800-
NORTHEAST MONTANA
CITY           SKY/WX    TMP DP  RH WIND       PRES   REMARKS
GLASGOW        CLEAR     55  48  77 E13       30.06S
GLENDIVE       CLEAR     55  54  96 S6        30.13F
JORDAN         CLEAR     57  50  78 E3        30.09S
SIDNEY         CLEAR     52  52 100 CALM      30.14R
WOLF POINT     CLEAR     54  48  80 E3        30.09S
* BEAVER HILL  N/A       55  52  90 SE13       N/A
* CIRCLE       N/A       58  51  78 N/A        N/A
* LINDSAY DVD  N/A       56  48  75 E2         N/A
* NAVAJO       N/A       54  46  74 S6         N/A
$$

MTZ028>042-056>058-270800-
SOUTHCENTRAL AND SOUTHEAST MONTANA
CITY           SKY/WX    TMP DP  RH WIND       PRES   REMARKS
BAKER          CLEAR     54  52  93 E7        30.16F
BILLINGS       CLEAR     66  48  52 S6        30.11S
LIVINGSTON     CLEAR     52  45  77 CALM      30.16S
MILES CITY     CLEAR     61  52  72 S8        30.11S
* LAUREL APT   CLEAR     57  46  67 N/A        N/A
* ROUNDUP APT  CLEAR     61  48  62 N/A        N/A
* ALZADA       N/A       57  55  93 E6         N/A
* HYSHAM       N/A       66  40  39 SE7G13     N/A
* LAME DEER    N/A       61  44  54 SE6        N/A
* REED POINT   N/A       56  50  80 E2         N/A
* ROSCOE HILL  N/A       59  37  44 S9         N/A
$$

REGIONAL REPORTS...DAKOTAS
CITY           SKY/WX    TMP DP  RH WIND       PRES   REMARKS
WILLISTON      CLEAR     54  52  93 SW3       30.13R
DICKINSON      CLEAR     50  48  93 S8        30.15F
BEACH          N/A       54  54 100 SE7       30.15F
CROSBY         CLEAR     50  50 100 S7        30.12S
TIOGA          CLEAR     54  54 100 S3        30.17S
WATFORD CITY   CLEAR     52  52 100 CALM      30.13S
BISMARCK       FAIR      54  54 100 NE5       30.19S
GRAND FORKS    CLEAR     54  52  93 SW6       30.16S
FARGO          FOG       54  54 100 SW3       30.19R
BUFFALO SD     CLEAR     54  52  93 E6        30.11F
RAPID CITY     CLOUDY    61  54  78 N5        30.16F
$$

REGIONAL REPORTS...WYOMING/IDAHO/WASHINGTON
CITY           SKY/WX    TMP DP  RH WIND       PRES   REMARKS
GILLETTE       PTCLDY    54  52  93 CALM      30.19F
SHERIDAN       PTCLDY    52  48  86 SW6       30.17S
CODY           PTCLDY    57  48  72 S3        30.19S
YELLOWSTONE LA PTCLDY    36  34  92 CALM      30.39S
SALMON         CLEAR     52  48  86 CALM      30.16R
MULLAN PASS    CLEAR     57  39  51 W5        30.23S
SAND POINT     CLEAR     54  54 100 CALM      30.04S
SPOKANE        CLEAR     66  45  47 SW7       30.03S
$$

REGIONAL REPORTS...ALBERTA
CITY           SKY/WX    TMP DP  RH WIND       PRES   REMARKS
CALGARY        FAIR      64  46  52 NW5       29.96S
LETHBRIDGE     CLEAR     61  48  62 SW10      29.98S
MEDICINE HAT   CLEAR     64  45  50 S12       29.95S
EDMONTON       MOCLDY    55  50  83 S7        29.86S
WATERTON GATE  N/A       63  45  52 SW15G22    N/A
CARDSTON       N/A       59  48  67 SW7        N/A
MILK RIVER     N/A       52  46  80 W5         N/A
$$

REGIONAL REPORTS...SASKATCHEWAN
CITY           SKY/WX    TMP DP  RH WIND       PRES   REMARKS
SWIFT CURRENT  CLEAR     59  48  67 S13G20    30.00S
REGINA         N/A       52  50  93 SE10      30.04F
VAL MARIE      N/A       52  48  86 W3         N/A
ASSINIBOIA     N/A       55  48  77 S7         N/A
CORONACH       N/A       48  45  89 SE6        N/A

$$



USA.gov is the U.S. government's official web portal to all federal, state and local government web resources and services.